Location: Champignolles
(47.0543°N, 4.5663°E)
Time: 05:32:00
(UTC+00:00)

Cosmos 2228 Rocket - Pass Details

Date: 30 November 2020
Orbit: 618 x 652 km, 82.5° (Epoch: 18 January)

Event Time Altitude Azimuth Distance (km) Brightness Sun altitude
Rises 18:42:02 0° 202° (SSW) 2,951 6.9 -27.8°
Reaches altitude 10° 18:44:20 10° 208° (SSW) 2,041 6.0 -28.1°
Maximum altitude 18:48:44 49° 283° (WNW) 835 4.0 -28.9°
Enters shadow 18:48:49 49° 287° (WNW) 836 3.9 -28.9°
